Temperature
11 10 10 10 11 11 11 12 12 12 13 12 12 12 12 12 12 12 12 12 11 11 11 10 10 10 10 10 10 10 11 11 10 10 10 10 10 10 10 10 11 11 11 11
11 10 11 12 12 12 12 11 11 12 12 12 11 12 12 12 12 13 12 12 11 11 10 10 10 10 10 10 10 10 10 10 10 10 10 10 10 10 10 10 10 10 10 10
10 11 12 12 12 11 12 11 11 11 11 12 11 11 12 12 13 13 12 12 12 11 10 10 10 9 9 10 10 10 10 10 10 10 10 10 10 10 10 10 10 10 10 10
11 11 11 11 11 11 11 11 11 11 10 10 11 10 12 12 12 12 12 12 11 11 10 10 9 9 9 9 10 10 10 10 10 10 10 9 9 9 9 10 10 10 10 10
10 10 10 11 11 11 10 11 11 11 10 10 11 10 11 13 12 11 12 12 11 11 10 10 10 9 9 9 9 9 9 9 9 9 9 9 9 9 9 9 9 9 9 9
11 11 10 10 11 11 11 11 11 11 10 10 11 10 11 12 12 12 12 12 11 11 10 10 10 9 9 9 9 9 9 9 9 9 9 9 9 9 9 9 9 9 9 9
11 11 11 11 10 11 11 10 10 10 10 10 11 11 11 13 13 12 12 12 11 11 10 10 9 9 9 9 9 9 9 9 9 9 9 9 9 9 9 8 8 8 8 8
10 10 10 10 10 9 10 11 9 9 10 10 10 10 11 12 12 12 12 12 11 11 10 10 9 9 9 9 9 9 9 9 9 8 9 8 8 8 8 8 8 8 8 8
10 10 10 11 10 10 10 10 11 9 10 10 11 12 12 12 11 11 12 11 11 11 10 10 9 9 9 9 9 9 9 9 9 8 8 8 8 8 8 8 8 8 8 8
11 9 10 11 10 10 10 10 9 9 9 10 12 12 11 11 11 11 11 11 11 11 10 10 9 9 9 9 9 9 8 8 8 8 8 8 8 8 8 8 8 8 8 7
11 9 10 10 10 10 10 10 10 10 10 10 10 11 12 12 11 11 11 11 11 11 10 10 9 9 9 9 9 9 8 8 8 8 8 8 8 8 8 7 7 7 7 7
10 9 8 10 10 10 10 11 10 9 9 10 9 10 12 12 12 11 11 11 11 10 10 9 9 9 9 8 8 8 8 8 8 8 8 8 8 7 7 7 7 7 7 7
10 9 8 9 9 9 9 10 10 10 9 8 9 10 11 11 11 12 11 11 10 10 9 9 9 8 8 8 8 8 8 8 8 8 7 7 7 7 7 7 6 6 6 6
9 8 8 8 9 9 9 10 10 9 7 8 9 10 11 11 11 11 11 11 10 9 9 9 8 8 8 8 8 8 8 8 8 7 7 7 7 7 6 6 6 6 6 6
9 7 8 9 9 9 9 9 9 8 8 9 10 10 11 11 10 11 11 10 10 9 9 8 8 8 8 7 7 7 7 7 7 7 7 7 7 6 6 6 6 6 5 5
8 8 8 7 8 8 8 8 9 9 9 9 9 10 11 11 12 11 11 10 10 9 9 8 8 8 8 7 7 7 7 7 7 7 7 6 6 6 6 6 5 5 5 5
8 8 7 6 9 8 7 9 9 9 9 10 9 10 11 10 10 10 10 10 10 9 9 8 8 8 7 7 7 7 7 7 7 6 6 6 6 5 5 5 5 5 5 4
8 7 6 6 7 7 10 10 10 10 10 10 10 10 10 10 10 10 10 9 9 9 9 8 8 7 7 7 7 7 7 7 6 6 6 5 5 5 5 5 4 4 4 4
7 7 6 6 6 8 10 9 9 9 9 10 9 9 10 10 9 9 10 9 9 9 8 8 8 7 7 7 7 7 6 6 6 6 5 5 5 4 4 4 4 4 4 4
6 6 6 6 7 8 10 9 9 9 8 9 9 9 9 8 6 7 9 9 8 8 8 8 7 7 7 6 6 6 6 6 5 5 5 5 4 4 4 4 4 3 3 3
5 5 5 5 6 7 9 8 8 8 8 9 9 9 8 8 7 8 8 8 8 8 7 7 7 7 6 6 6 6 6 5 5 5 4 4 4 4 3 3 3 3 3 3
5 5 5 5 5 6 7 7 7 8 9 9 9 8 8 8 8 8 7 7 7 7 7 7 6 6 6 6 5 5 5 5 5 4 4 4 3 3 3 3 3 3 2 2
7 7 6 6 7 9 8 8 9 9 8 8 8 8 8 7 7 7 7 7 6 6 6 6 6 6 5 5 5 5 5 4 4 4 4 3 3 3 3 3 2 2 2 2
7 7 6 6 7 8 9 9 8 8 8 8 8 7 7 7 7 7 6 6 6 6 6 6 5 5 5 5 5 4 4 4 4 3 3 3 3 3 2 2 2 2 1 1
7 5 5 5 6 7 8 8 8 7 7 7 7 7 6 6 6 6 6 6 6 5 5 5 5 5 5 4 4 4 4 3 3 3 3 2 2 2 2 2 2 1 1 1
5 5 4 5 7 6 7 7 7 7 6 6 6 6 6 5 5 5 5 5 5 5 5 5 4 4 4 4 4 4 3 3 3 2 2 2 2 2 2 1 1 1 1 0
Wind_Speed
3 2 2 3 5 7 7 7 6 4 1 3 7 7 6 4 4 5 5 6 6 6 6 6 6 6 5 5 5 5 5 4 3 2 2 2 1 2 2 3 4 4 4 3
1 2 4 6 7 8 8 6 5 3 3 4 6 8 6 5 6 6 6 6 6 6 7 7 7 6 5 5 5 5 5 4 4 2 2 2 2 2 2 2 3 3 3 3
1 3 5 6 5 6 5 4 4 4 5 4 5 5 6 5 6 5 5 6 6 7 7 8 7 6 6 5 5 5 4 4 4 3 3 3 2 1 1 1 1 1 2 2
1 2 5 5 4 6 4 3 5 5 3 3 3 3 5 6 7 7 6 6 6 6 7 7 7 6 6 5 5 5 4 4 3 3 3 3 2 2 2 2 2 1 2 2
2 3 4 4 4 5 3 6 6 5 4 3 2 3 4 6 7 8 8 7 7 7 7 8 7 6 6 5 5 5 5 4 4 3 3 3 2 1 2 2 2 2 1 2
3 1 2 3 5 5 5 6 6 4 2 3 3 3 4 4 6 6 7 7 7 7 7 7 7 7 6 5 5 5 5 4 4 4 3 3 2 2 2 2 2 1 1 2
2 3 1 2 4 3 4 3 2 1 1 3 1 2 5 1 3 5 7 7 7 7 7 7 8 8 7 7 6 5 6 5 5 5 4 4 3 3 3 2 2 2 1 2
4 2 1 1 2 3 5 3 2 2 3 2 1 4 3 3 3 3 4 6 7 7 7 7 7 7 7 7 7 6 6 5 5 5 4 4 4 2 2 2 2 2 2 2
4 3 1 0 1 3 4 2 1 2 5 3 4 3 2 4 4 3 4 5 6 7 7 7 7 7 7 7 7 7 6 5 5 5 4 4 4 3 3 3 2 2 2 2
4 4 2 2 2 3 3 4 2 1 3 4 4 3 2 4 4 4 4 5 5 6 6 6 6 6 7 7 6 6 6 6 5 5 4 3 4 4 4 3 3 3 3 2
4 3 3 2 3 2 2 2 2 3 3 2 3 3 2 3 4 4 4 4 5 5 6 6 5 5 6 6 6 5 5 5 4 4 4 4 4 4 3 3 3 3 3 3
2 2 4 3 2 2 2 3 2 2 4 3 3 4 2 5 4 3 3 4 4 5 5 5 5 5 5 5 5 5 4 4 4 3 3 3 4 3 3 3 3 3 2 2
4 3 4 2 0 1 3 4 3 3 3 3 3 4 1 2 2 2 3 3 4 4 4 4 4 5 5 5 5 5 5 4 4 3 3 2 3 3 3 3 2 2 2 2
3 4 4 5 5 3 6 6 5 4 3 5 6 7 5 3 2 1 2 3 4 4 4 4 4 4 5 5 5 5 5 4 4 3 3 3 3 3 2 2 2 2 2 2
2 4 6 9 9 8 10 11 9 9 9 8 7 8 8 4 2 2 3 3 3 4 4 5 5 4 4 4 4 5 5 5 4 3 3 3 2 2 2 1 2 2 2 2
2 4 6 8 8 9 12 13 12 12 12 13 13 14 8 3 1 1 3 3 4 4 4 5 5 5 5 5 5 5 5 5 4 4 3 2 2 2 2 2 2 2 2 2
4 4 4 6 5 8 9 9 9 7 7 7 10 9 4 3 3 3 3 3 4 5 5 5 5 4 5 5 5 5 5 4 4 4 3 3 3 2 2 2 2 3 3 3
5 4 3 5 6 7 6 2 2 5 7 8 8 6 4 3 3 2 2 3 3 3 4 4 4 4 4 4 4 4 5 5 4 4 3 3 3 2 2 2 3 3 2 2
4 4 4 3 5 9 6 2 1 2 6 5 6 6 4 2 4 4 3 2 2 2 2 3 4 3 4 5 5 5 5 4 4 4 3 3 3 3 3 3 3 3 2 3
2 3 4 4 5 6 3 2 3 2 5 2 1 3 2 1 2 4 2 1 1 1 1 2 3 3 4 4 5 5 4 4 4 4 4 3 3 3 4 4 3 2 2 3
3 4 6 7 7 7 3 3 3 1 3 1 2 2 1 3 4 2 1 1 1 1 1 2 3 3 4 5 5 5 4 5 4 3 3 3 3 3 3 3 3 3 3 3
6 6 6 5 7 8 3 4 4 4 2 2 2 2 3 3 2 2 1 1 1 1 1 2 3 3 3 5 5 5 5 4 4 3 3 3 3 3 3 3 3 3 3 4
7 7 5 7 8 3 5 5 4 3 4 4 3 4 3 4 4 3 3 3 2 2 2 2 3 3 3 5 5 5 4 4 4 3 3 3 3 3 3 3 3 3 3 3
6 3 5 7 8 7 6 6 6 5 6 6 4 4 4 5 5 5 4 3 3 3 3 3 4 4 4 4 5 5 4 4 4 4 4 3 3 3 3 3 3 3 3 4
6 3 6 9 9 9 8 6 6 5 5 6 6 5 5 6 6 5 5 5 4 3 3 4 4 5 5 5 5 4 4 4 4 4 4 3 4 3 3 3 4 4 5 5
7 8 8 10 7 6 7 5 5 5 6 6 6 6 5 5 6 6 5 4 4 4 3 4 5 5 5 5 5 5 5 5 5 4 4 3 3 3 3 3 4 6 7 8
Wind_Direction
210 236 276 271 262 270 277 270 276 283 272 248 244 252 245 225 213 202 181 166 161 157 149 140 130 121 117 118 122 125 122 120 120 122 126 123 121 107 86 82 74 66 59 49
243 275 289 280 271 275 275 277 284 310 319 273 258 256 241 213 207 200 178 169 163 154 149 147 139 133 136 135 134 129 129 133 133 131 119 109 107 100 105 95 82 74 68 62
276 311 307 297 296 292 282 281 292 299 309 264 266 258 218 192 186 179 176 169 164 161 159 155 149 147 146 147 149 138 135 133 133 133 116 105 96 99 107 115 110 92 86 98
299 326 307 304 317 310 291 326 310 296 298 269 229 273 234 186 178 183 181 170 164 163 159 156 155 153 152 152 146 134 142 139 139 133 136 151 158 166 173 154 149 131 123 117
324 347 328 316 311 305 290 304 286 268 268 292 266 249 255 171 181 191 181 171 166 163 160 158 159 156 150 147 146 146 151 146 143 145 155 159 154 153 134 130 143 155 153 148
250 224 320 312 301 277 279 281 265 240 240 270 236 220 270 194 188 177 172 172 167 159 158 154 151 147 145 147 150 156 157 154 154 162 166 165 166 161 147 156 167 184 175 184
283 182 169 282 310 304 298 319 345 329 245 258 199 215 253 170 140 160 171 175 167 157 155 154 156 159 156 158 160 165 166 167 168 173 180 181 185 182 188 195 192 195 192 199
320 301 121 19 348 312 299 336 15 306 290 296 241 230 245 106 89 108 147 159 159 157 158 160 161 159 161 166 168 173 175 173 173 181 188 185 183 185 205 204 195 206 207 202
327 309 96 111 311 309 319 340 332 302 294 278 244 217 145 116 113 123 146 156 165 164 162 163 163 161 163 167 174 179 178 175 178 185 182 184 185 190 202 209 203 208 212 204
315 297 263 153 223 238 288 319 329 311 321 303 277 237 211 176 171 161 161 167 169 160 157 159 163 165 165 166 172 175 175 175 177 179 179 183 188 193 196 199 211 212 214 208
295 286 278 228 226 235 215 250 263 271 260 280 299 296 42 115 146 159 167 159 158 159 162 165 166 165 161 160 165 171 171 164 167 174 175 181 190 188 187 195 210 213 216 213
328 297 274 254 95 42 301 284 275 272 290 269 270 278 49 77 87 126 144 147 148 148 153 160 164 160 157 157 158 161 162 159 164 166 168 179 175 177 188 203 209 203 214 219
338 295 307 306 66 194 254 247 256 286 307 266 251 262 139 115 122 125 142 152 149 152 155 158 159 161 163 160 159 161 159 157 153 148 157 170 174 179 194 206 205 197 205 216
314 271 241 256 289 299 273 261 241 229 227 255 240 258 258 231 211 169 170 169 161 163 166 164 166 166 163 160 159 158 157 152 150 154 163 179 184 182 192 201 199 201 202 208
260 272 273 278 286 285 274 266 250 237 236 246 263 271 275 276 251 199 184 182 175 172 173 172 173 169 162 158 159 158 154 149 151 161 172 184 174 168 175 190 204 204 206 217
238 272 293 282 266 269 273 263 252 249 246 250 266 274 275 271 279 211 188 193 197 191 186 180 176 170 168 168 167 158 156 155 156 167 177 172 171 176 181 197 208 216 225 227
239 262 290 282 297 303 275 251 226 223 225 232 247 256 273 273 260 246 226 213 212 205 193 188 185 181 174 171 162 163 163 156 162 172 170 169 179 188 197 202 215 227 230 230
248 245 254 285 311 263 252 327 250 238 252 244 255 276 299 299 295 267 247 242 233 210 189 185 180 176 166 158 154 153 151 156 166 172 175 177 181 194 204 211 229 236 235 236
249 240 246 258 274 274 267 244 216 249 280 251 247 270 287 334 334 298 262 237 251 233 197 178 170 166 152 147 147 145 154 161 171 183 186 185 184 199 210 223 237 240 242 253
292 261 247 244 256 261 268 103 50 15 284 318 307 298 310 26 296 279 323 345 326 357 164 152 146 140 142 145 143 152 169 175 189 192 187 183 189 204 217 224 234 239 239 251
192 210 222 238 250 265 268 133 117 213 268 354 351 316 278 247 244 268 349 15 358 344 143 140 139 150 160 152 150 169 180 193 190 174 173 185 199 210 220 226 230 234 240 254
194 201 209 210 229 252 185 143 198 252 281 288 294 282 268 267 279 293 283 256 227 233 200 160 155 164 162 159 164 179 194 187 162 161 181 203 213 216 216 226 237 237 237 251
210 209 216 215 229 258 189 224 255 293 294 290 288 290 276 275 274 276 269 252 235 221 214 187 175 176 177 173 172 187 194 165 159 175 202 217 219 222 223 230 240 247 245 248
240 234 261 272 270 281 267 268 278 279 277 283 283 282 274 269 270 273 269 257 242 225 208 196 183 188 199 191 186 189 178 164 169 195 213 216 220 231 232 234 235 239 245 251
262 239 257 267 277 289 275 268 277 283 283 287 282 273 263 263 267 265 264 254 235 218 208 197 197 202 208 198 191 185 177 170 186 206 214 218 222 229 236 237 235 242 241 238
234 235 241 256 265 272 286 304 302 282 280 283 285 283 273 259 264 264 259 250 234 217 207 208 209 209 208 200 197 194 186 182 190 209 217 217 220 228 236 252 273 260 255 263
Height
1501 1503 1503 1501 1499 1497 1495 1494 1492 1489 1487 1489 1488 1486 1484 1483 1484 1485 1486 1488 1491 1493 1495 1496 1497 1499 1500 1502 1504 1505 1506 1508 1509 1510 1511 1513 1513 1515 1516 1517 1517 1519 1520 1521
1501 1502 1499 1497 1496 1494 1493 1493 1492 1489 1486 1487 1487 1484 1481 1481 1481 1483 1484 1487 1489 1492 1493 1495 1496 1497 1499 1500 1502 1504 1505 1507 1508 1510 1511 1512 1513 1514 1515 1516 1517 1517 1519 1520
1502 1501 1497 1496 1494 1494 1492 1493 1492 1492 1488 1485 1487 1484 1480 1478 1480 1481 1483 1485 1488 1490 1492 1493 1494 1496 1498 1499 1501 1502 1504 1506 1507 1509 1510 1511 1512 1513 1514 1515 1516 1516 1517 1518
1499 1498 1497 1495 1495 1495 1494 1491 1490 1490 1493 1493 1488 1494 1479 1476 1478 1480 1482 1484 1486 1488 1490 1491 1493 1495 1496 1498 1500 1501 1503 1505 1506 1507 1509 1510 1511 1512 1513 1514 1514 1515 1515 1515
1501 1499 1499 1498 1497 1495 1494 1490 1489 1489 1491 1492 1487 1491 1482 1473 1477 1478 1479 1482 1484 1486 1488 1490 1492 1493 1495 1497 1499 1500 1502 1503 1504 1506 1507 1508 1509 1511 1511 1512 1512 1513 1513 1514
1500 1500 1500 1499 1496 1494 1492 1490 1486 1487 1491 1496 1487 1490 1484 1475 1472 1474 1477 1479 1482 1484 1486 1488 1490 1492 1494 1496 1497 1499 1500 1501 1503 1504 1505 1507 1508 1509 1510 1510 1511 1511 1511 1512
1500 1499 1499 1498 1497 1493 1493 1495 1498 1496 1496 1492 1484 1486 1483 1469 1468 1470 1473 1477 1479 1482 1484 1486 1488 1490 1492 1493 1495 1497 1498 1500 1501 1502 1504 1505 1506 1507 1508 1508 1509 1509 1510 1510
1505 1504 1499 1498 1499 1499 1494 1495 1504 1506 1500 1492 1486 1486 1476 1469 1469 1469 1472 1475 1478 1480 1483 1485 1486 1488 1490 1491 1493 1495 1496 1498 1499 1500 1502 1503 1504 1504 1505 1506 1507 1507 1507 1507
1507 1505 1500 1498 1498 1499 1496 1497 1495 1501 1494 1493 1485 1475 1471 1470 1470 1471 1472 1474 1477 1479 1481 1483 1485 1487 1488 1489 1491 1493 1494 1495 1497 1498 1499 1500 1501 1502 1503 1503 1504 1504 1504 1504
1504 1507 1499 1498 1499 1498 1498 1496 1499 1502 1501 1497 1483 1476 1477 1473 1472 1472 1473 1474 1476 1478 1480 1482 1483 1485 1486 1488 1489 1491 1492 1493 1495 1496 1497 1497 1498 1499 1500 1500 1501 1501 1501 1501
1504 1507 1502 1499 1498 1497 1498 1497 1496 1497 1496 1500 1495 1486 1469 1469 1469 1471 1472 1473 1475 1477 1478 1480 1482 1483 1485 1486 1487 1489 1490 1491 1492 1493 1494 1495 1495 1496 1497 1497 1498 1498 1498 1498
1503 1505 1506 1497 1494 1495 1495 1494 1495 1501 1498 1493 1496 1490 1469 1468 1468 1469 1471 1472 1474 1475 1477 1478 1480 1481 1482 1484 1485 1486 1488 1489 1489 1490 1491 1492 1492 1493 1493 1494 1494 1495 1495 1495
1505 1506 1509 1501 1501 1499 1497 1494 1493 1495 1498 1498 1497 1487 1470 1469 1469 1469 1471 1472 1473 1474 1476 1477 1478 1479 1480 1481 1482 1484 1485 1486 1487 1488 1489 1489 1490 1490 1490 1491 1491 1491 1491 1491
1507 1506 1508 1506 1499 1497 1496 1493 1493 1496 1502 1496 1486 1479 1471 1470 1469 1470 1470 1471 1472 1473 1474 1475 1476 1477 1478 1479 1480 1482 1483 1484 1485 1486 1486 1487 1487 1487 1487 1487 1487 1487 1487 1487
1506 1507 1501 1498 1494 1493 1492 1490 1489 1491 1490 1489 1479 1474 1469 1467 1468 1468 1469 1470 1471 1471 1472 1473 1474 1475 1476 1477 1478 1479 1480 1481 1482 1483 1484 1484 1484 1484 1484 1484 1484 1484 1484 1483
1504 1504 1501 1500 1493 1492 1489 1484 1483 1483 1481 1479 1476 1472 1466 1465 1466 1466 1467 1468 1468 1469 1470 1471 1472 1473 1473 1474 1476 1477 1478 1479 1479 1480 1481 1481 1481 1481 1481 1481 1481 1480 1480 1480
1503 1503 1503 1501 1491 1491 1489 1475 1474 1474 1472 1472 1473 1468 1464 1464 1464 1464 1465 1465 1466 1466 1467 1468 1469 1470 1471 1472 1473 1474 1475 1476 1476 1477 1477 1478 1478 1478 1478 1478 1477 1477 1477 1476
1500 1501 1504 1502 1497 1496 1475 1468 1467 1467 1466 1466 1464 1463 1463 1463 1463 1463 1463 1464 1464 1464 1465 1465 1466 1467 1468 1469 1470 1471 1472 1473 1473 1474 1474 1474 1475 1475 1475 1475 1474 1474 1473 1473
1498 1499 1501 1502 1497 1483 1471 1468 1467 1468 1467 1462 1462 1461 1462 1462 1462 1461 1461 1461 1462 1462 1462 1462 1463 1464 1465 1466 1467 1468 1469 1470 1470 1471 1471 1471 1471 1472 1472 1471 1471 1471 1470 1469
1498 1498 1501 1498 1495 1485 1470 1468 1467 1469 1469 1462 1460 1461 1461 1461 1465 1462 1459 1459 1459 1460 1460 1460 1460 1461 1462 1463 1464 1465 1466 1467 1467 1468 1468 1468 1468 1468 1468 1468 1468 1467 1466 1466
1499 1500 1500 1497 1492 1479 1468 1467 1468 1473 1468 1462 1461 1460 1460 1460 1461 1459 1458 1457 1457 1457 1457 1457 1457 1458 1459 1460 1461 1462 1462 1463 1464 1465 1465 1465 1465 1465 1465 1464 1464 1463 1462 1461
1491 1494 1493 1491 1490 1481 1467 1467 1469 1466 1462 1460 1460 1459 1459 1458 1457 1456 1456 1455 1455 1455 1454 1454 1454 1455 1456 1457 1458 1458 1459 1460 1461 1461 1461 1461 1461 1461 1461 1461 1460 1459 1458 1457
1481 1480 1479 1478 1474 1465 1463 1463 1462 1461 1460 1459 1458 1457 1457 1456 1455 1454 1453 1453 1452 1452 1452 1451 1452 1452 1452 1453 1454 1455 1456 1456 1457 1457 1457 1458 1458 1458 1457 1457 1456 1455 1454 1453
1474 1472 1473 1470 1464 1461 1460 1460 1459 1459 1458 1457 1455 1455 1454 1453 1452 1451 1450 1450 1449 1449 1448 1448 1448 1448 1449 1450 1451 1452 1452 1453 1453 1453 1454 1454 1454 1453 1453 1452 1452 1451 1450 1449
1471 1472 1471 1467 1462 1460 1457 1457 1457 1455 1454 1453 1452 1451 1450 1449 1448 1447 1447 1446 1445 1445 1445 1445 1445 1445 1446 1446 1447 1448 1449 1449 1449 1450 1450 1450 1450 1449 1449 1448 1448 1446 1446 1445
1467 1468 1468 1462 1459 1458 1455 1454 1454 1452 1451 1450 1449 1447 1446 1445 1444 1443 1442 1442 1441 1441 1441 1441 1441 1441 1442 1443 1443 1444 1445 1445 1445 1445 1445 1445 1445 1445 1444 1443 1443 1442 1441 1440